Change the Weather History Date:

Saturday, January 12, 2013

  Actual Average Record
Temperature  
Mean Temperature 39 °F 25 °F  
Max Temperature 43 °F 35 °F 58 °F (1980)
Min Temperature 34 °F 16 °F -20 °F (1968)
Degree Days  
Heating Degree Days 26 40  
Month to date heating degree days 431 472  
Since 1 July heating degree days 2481 2801  
Cooling Degree Days 0 0  
Month to date cooling degree days 0 0  
Year to date cooling degree days 0 0  
Moisture  
Dew Point 37 °F    
Average Humidity 95    
Maximum Humidity 100    
Minimum Humidity 89    
Precipitation  
Precipitation T in 0.11 in 0.52 in (2015)
Month to date precipitation 0.25 1.23  
Year to date precipitation 0.25 1.23  
Sea Level Pressure  
Sea Level Pressure 30.13 in    
Wind  
Wind Speed 1 mph (South)    
Max Wind Speed 7 mph    
Max Gust Speed 10 mph    
Visibility 1 miles    
Events Fog    
T = Trace of Precipitation, MM = Missing Value Source: NWS Daily Summary

Daily Weather History Graph

Daily Weather History Graph

Search for Another Location

Airport or City:

Trip Planner

Search our weather history database for the weather conditions in past years. The results will help you decide how hot, cold, wet, or windy it might be!

Date:

Astronomy

Jan. 12, 2013 Rise Set
Actual Time 7:21 AM EST 4:47 PM EST
Civil Twilight 6:50 AM EST 5:18 PM EST
Nautical Twilight 6:15 AM EST 5:52 PM EST
Astronomical Twilight 5:42 AM EST 6:25 PM EST
Moon 7:36 AM EST (1/12) 6:14 PM EST (1/12)
Length of Visible Light 10h 27m
Length of Day
9h 26m
New Moon, 1% of the Moon is Illuminated
Jan 12
New Moon
Jan 18
First Quarter
Jan 26
Full
Feb 3
Last Quarter
Feb 10
New

Hourly Weather History & Observations

Time (EST) Temp. Windchill Dew Point Humidity Pressure Visibility Wind Dir Wind Speed Gust Speed Precip Events Conditions
12:53 AM 36.0 °F - 34.0 °F 93% 30.12 in 3.0 mi Calm Calm - 0.00 in   Overcast
1:00 AM 35.6 °F - 33.8 °F 93% 30.12 in 2.0 mi Calm Calm - N/A   Overcast
1:07 AM 35.6 °F - 33.8 °F 93% 30.12 in 1.2 mi Calm Calm - N/A   Overcast
1:12 AM 35.6 °F - 33.8 °F 93% 30.12 in 0.8 mi Calm Calm - N/A   Overcast
1:28 AM 35.6 °F 31.7 °F 33.8 °F 93% 30.12 in 0.5 mi NW 4.6 mph - N/A Fog Fog
1:36 AM 35.6 °F 32.8 °F 33.8 °F 93% 30.12 in 0.8 mi NW 3.5 mph - N/A   Overcast
1:44 AM 35.6 °F - 35.6 °F 100% 30.12 in 1.2 mi Calm Calm - N/A   Overcast
1:53 AM 36.0 °F - 35.1 °F 97% 30.12 in 1.2 mi Calm Calm - N/A   Overcast
2:14 AM 35.6 °F - 33.8 °F 93% 30.12 in 0.5 mi Calm Calm - N/A Fog Fog
2:53 AM 35.1 °F - 33.1 °F 92% 30.12 in 0.5 mi Calm Calm - N/A Fog Fog
3:06 AM 35.6 °F - 35.6 °F 100% 30.14 in 1.0 mi Calm Calm - N/A   Overcast
3:38 AM 35.6 °F - 33.8 °F 93% 30.12 in 0.5 mi Calm Calm - N/A Fog Fog
3:53 AM 35.1 °F - 34.0 °F 96% 30.11 in 0.8 mi Calm Calm - N/A   Overcast
3:56 AM 35.6 °F - 33.8 °F 93% 30.12 in 1.0 mi Calm Calm - N/A   Overcast
4:05 AM 35.6 °F - 33.8 °F 93% 30.11 in 0.8 mi Calm Calm - N/A   Overcast
4:30 AM 33.8 °F 29.6 °F 33.8 °F 100% 30.11 in 0.5 mi West 4.6 mph - N/A Fog Fog
4:53 AM 35.1 °F - 34.0 °F 96% 30.09 in 0.5 mi Calm Calm - N/A Fog Fog
5:35 AM 35.6 °F - 33.8 °F 93% 30.12 in 0.2 mi Calm Calm - N/A Fog Fog
5:53 AM 35.1 °F - 33.1 °F 92% 30.12 in 0.2 mi Calm Calm - N/A Fog Fog
6:02 AM 35.6 °F - 33.8 °F 93% 30.13 in 0.5 mi Calm Calm - N/A Fog Fog
6:42 AM 35.6 °F - 35.6 °F 100% 30.14 in 1.2 mi Calm Calm - N/A   Overcast
6:53 AM 35.1 °F 32.2 °F 34.0 °F 96% 30.12 in 1.0 mi ESE 3.5 mph - N/A   Overcast
7:08 AM 35.6 °F - 33.8 °F 93% 30.13 in 2.5 mi Calm Calm - N/A   Overcast
7:21 AM 35.6 °F - 33.8 °F 93% 30.14 in 1.8 mi Calm Calm - N/A   Overcast
7:38 AM 33.8 °F 30.8 °F 33.8 °F 100% 30.14 in 0.8 mi NNW 3.5 mph - N/A   Overcast
7:49 AM 35.6 °F - 33.8 °F 93% 30.15 in 1.0 mi Calm Calm - N/A   Overcast
7:53 AM 35.1 °F - 34.0 °F 96% 30.15 in 0.8 mi Calm Calm - N/A   Overcast
8:33 AM 35.6 °F 32.8 °F 35.6 °F 100% 30.15 in 1.2 mi East 3.5 mph - N/A   Overcast
8:53 AM 37.0 °F - 36.0 °F 96% 30.15 in 1.2 mi Calm Calm - N/A   Overcast
8:59 AM 35.6 °F - 35.6 °F 100% 30.15 in 0.2 mi Calm Calm - N/A Fog Fog
9:04 AM 35.6 °F - 35.6 °F 100% 30.15 in 0.2 mi Calm Calm - N/A Fog Fog
9:14 AM 37.4 °F - 35.6 °F 93% 30.15 in 0.8 mi Calm Calm - N/A   Overcast
9:22 AM 37.4 °F - 35.6 °F 93% 30.14 in 1.8 mi Calm Calm - N/A   Overcast
9:28 AM 37.4 °F - 35.6 °F 93% 30.15 in 2.0 mi Calm Calm - N/A   Overcast
9:37 AM 35.6 °F - 35.6 °F 100% 30.15 in 0.8 mi Calm Calm - N/A   Overcast
9:53 AM 37.0 °F - 36.0 °F 96% 30.15 in 0.8 mi Calm Calm - N/A   Overcast
10:04 AM 37.4 °F - 35.6 °F 93% 30.15 in 1.2 mi Calm Calm - N/A   Overcast
10:19 AM 37.4 °F - 37.4 °F 100% 30.16 in 0.5 mi Calm Calm - N/A Fog Fog
10:25 AM 37.4 °F - 37.4 °F 100% 30.15 in 1.0 mi Calm Calm - N/A   Overcast
10:53 AM 39.0 °F - 37.9 °F 96% 30.14 in 1.0 mi Calm Calm - N/A   Overcast
11:00 AM 37.4 °F 34.9 °F 37.4 °F 100% 30.14 in 0.5 mi WSW 3.5 mph - N/A Fog Fog
11:17 AM 37.4 °F 32.8 °F 37.4 °F 100% 30.14 in 1.2 mi WSW 5.8 mph - N/A   Overcast
11:53 AM 39.9 °F 37.8 °F 37.9 °F 93% 30.13 in 2.5 mi SW 3.5 mph - N/A   Overcast
12:53 PM 41.0 °F - 39.0 °F 93% 30.12 in 2.5 mi Calm Calm - N/A   Overcast
1:06 PM 41.0 °F - 39.2 °F 93% 30.13 in 1.0 mi Calm Calm - N/A   Overcast
1:25 PM 42.8 °F - 39.2 °F 87% 30.14 in 3.0 mi Calm Calm - N/A   Overcast
1:53 PM 42.1 °F - 41.0 °F 96% 30.13 in 4.0 mi Calm Calm - N/A   Overcast
2:20 PM 42.8 °F - 39.2 °F 87% 30.13 in 7.0 mi Calm Calm - N/A   Overcast
2:53 PM 43.0 °F - 39.9 °F 89% 30.13 in 6.0 mi Calm Calm - N/A   Overcast
3:53 PM 43.0 °F - 39.9 °F 89% 30.13 in 5.0 mi Calm Calm - N/A   Overcast
4:23 PM 42.8 °F - 39.2 °F 87% 30.13 in 2.5 mi Calm Calm - N/A   Overcast
4:45 PM 41.0 °F - 39.2 °F 93% 30.16 in 1.0 mi Calm Calm - N/A   Overcast
4:53 PM 39.9 °F - 39.0 °F 97% 30.16 in 0.8 mi Calm Calm - N/A   Overcast
5:08 PM 41.0 °F - 39.2 °F 93% 30.16 in 1.5 mi Calm Calm - N/A   Overcast
5:25 PM 41.0 °F 39.0 °F 39.2 °F 93% 30.15 in 0.5 mi SSE 3.5 mph - N/A Fog Fog
5:53 PM 42.1 °F - 41.0 °F 96% 30.14 in 1.5 mi Calm Calm - N/A   Overcast
6:04 PM 42.8 °F 41.1 °F 41.0 °F 93% 30.14 in 1.0 mi South 3.5 mph - N/A   Overcast
6:25 PM 42.8 °F - 39.2 °F 87% 30.14 in 0.5 mi Calm Calm - N/A Fog Fog
6:53 PM 41.0 °F 39.0 °F 39.0 °F 93% 30.14 in 0.5 mi SSW 3.5 mph - N/A Fog Fog
7:17 PM 39.2 °F 35.9 °F 39.2 °F 100% 30.13 in 0.2 mi SE 4.6 mph - N/A Fog Fog
7:53 PM 39.0 °F - 37.9 °F 96% 30.14 in 0.2 mi Calm Calm - N/A Fog Fog
8:22 PM 39.2 °F 37.0 °F 37.4 °F 93% 30.13 in 0.2 mi SE 3.5 mph - N/A Fog Fog
8:34 PM 39.2 °F - 39.2 °F 100% 30.13 in 0.8 mi Calm Calm - N/A   Overcast
8:41 PM 39.2 °F - 37.4 °F 93% 30.12 in 1.2 mi Calm Calm - N/A   Overcast
8:51 PM 39.2 °F - 37.4 °F 93% 30.13 in 0.8 mi Calm Calm - N/A   Overcast
8:53 PM 39.0 °F - 37.9 °F 96% 30.12 in 0.8 mi Calm Calm - N/A   Overcast
9:13 PM 37.4 °F - 37.4 °F 100% 30.13 in 1.2 mi Calm Calm - N/A   Overcast
9:42 PM 39.2 °F 37.0 °F 37.4 °F 93% 30.11 in 1.2 mi SE 3.5 mph - N/A   Overcast
9:53 PM 39.0 °F - 37.9 °F 96% 30.11 in 1.2 mi Calm Calm - N/A   Overcast
10:05 PM 39.2 °F - 39.2 °F 100% 30.12 in 3.0 mi Calm Calm - N/A   Overcast
10:08 PM 37.4 °F - 37.4 °F 100% 30.12 in 1.8 mi Calm Calm - N/A   Overcast
10:19 PM 39.2 °F - 37.4 °F 93% 30.12 in 0.8 mi Calm Calm - N/A   Overcast
10:35 PM 37.4 °F - 37.4 °F 100% 30.13 in 0.8 mi Calm Calm - N/A   Overcast
10:53 PM 37.9 °F 35.5 °F 37.0 °F 97% 30.12 in 0.5 mi South 3.5 mph - N/A Fog Fog
11:11 PM 39.2 °F - 39.2 °F 100% 30.13 in 1.2 mi Calm Calm - N/A   Overcast
11:20 PM 37.4 °F - 35.6 °F 93% 30.13 in 0.2 mi Calm Calm - N/A Fog Fog
11:36 PM 37.4 °F - 37.4 °F 100% 30.14 in 0.2 mi Calm Calm - N/A Fog Fog
11:42 PM 37.4 °F - 37.4 °F 100% 30.13 in 0.5 mi Calm Calm - N/A Fog Fog
11:53 PM 37.9 °F 35.5 °F 36.0 °F 93% 30.13 in 0.8 mi SE 3.5 mph - N/A   Overcast